カタログに戻る

DELTA 1 DEB

運用中SSO
NORAD 12256·DEBRIS·🇺🇸 United States

打ち上げ Mar 5, 1978 から Vandenberg Space Force Base

Loading…

次のパス (今後24時間)

TLE

最新Source: Space-Track

元期: Sep 13, 2026, 15:40 UTC

1 12256U 78026CZ  26256.65341994  .00001075  00000-0  48428-3 0  9993
2 12256  99.0620 320.8997 0082772  49.2749 311.5578 14.22630203325736

AllMySatでDELTA 1 DEBをリアルタイム追跡

Download on the App Store